Location: downtown San Diego
(32.7310°N, 117.1990°W)
Time: 22:20:55
(UTC-07:00)

SL-8 Rocket - Pass Details

Date: 19 May 2017
Orbit: 957 x 991 km, 82.9° (Epoch: 25 September)

Event Time Altitude Azimuth Distance (km) Brightness Sun altitude
Rises 22:48:38 0° 359° (N) 3,667 7.8 -30.3°
Reaches altitude 10° 22:51:12 10° 4° (N) 2,722 6.9 -30.6°
Enters shadow 22:56:18 50° 48° (NE) 1,232 4.5 -31.2°
